Regional Weather Roundup
Issued by NWS Burlington, VT

Home | Current Version | Previous Version | Text Only | Print | Product List | Glossary On
Versions: 1 2 3 4 5 6 7 8 9 10 11 12 13 14 15 16 17 18 19 20 21 22 23 24 25 26 27 28 29 30 31 32 33 34 35 36 37 38 39 40 41 42 43 44 45 46 47 48 49 50
000
ASUS41 KBTV 031110
RWRBTV
VERMONT REGIONAL WEATHER ROUNDUP
NATIONAL WEATHER SERVICE BURLINGTON VT
700 AM EDT FRI JUL 03 2015

NOTE: "FAIR" INDICATES FEW OR NO CLOUDS BELOW 12,000 FEET WITH NO
SIGNIFICANT WEATHER AND/OR OBSTRUCTIONS TO VISIBILITY.

* THESE REPORTS ARE NOT UNDER NWS QUALITY CONTROL AND/OR DO NOT
  REPORT WEATHER SUCH AS PRECIPITATION AND FOG.

VTZ001>019-031200-
_____VERMONT_____


CITY           SKY/WX    TMP DP  RH WIND       PRES   REMARKS
BURLINGTON     MOSUNNY   54  48  80 CALM      29.96R
MONTPELIER     PTSUNNY   48  47  96 CALM      30.01R FOG
MORRISVILLE    CLOUDY    48  46  93 CALM      29.99R FOG
ST. JOHNSBURY*   N/A     47  45  93 MISG      29.96R
LYNDONVILLE*   FAIR      47  46  95 CALM      29.98R
MIDDLEBURY*    FAIR      51  51 100 CALM      29.97S
RUTLAND*       SUNNY     50  41  71 SE8       29.99S
SPRINGFIELD    MOSUNNY   48  48 100 CALM      29.99R FOG
HIGHGATE*      FAIR      52  50  92 SE3       29.95R
NEWPORT*       FAIR      50  47  91 SW3       29.96R
BENNINGTON     SUNNY     50  49  96 CALM      30.00R
SUTTON*          N/A     52 N/A N/A MISG        N/A

_____LAKE CHAMPLAIN_____


CITY           SKY/WX    TMP DP  RH WIND       PRES   REMARKS

$$

NYZ007-026>031-035-052-083-031200-
_____NORTHERN NEW YORK_____


CITY           SKY/WX    TMP DP  RH WIND       PRES   REMARKS
PLATTSBURGH    SUNNY     58  49  72 SE3       29.95R
SARANAC LAKE   PTSUNNY   42  41  96 CALM      29.99R
MASSENA        PTSUNNY   54  49  83 SW8       29.98R
POTSDAM*       SUNNY     54  52  94 SW5       29.99R
WATERTOWN      SUNNY     53  47  79 CALM      30.00R
FT DRUM        SUNNY     51  48  90 SE5       29.99R
ALBANY         MOSUNNY   57  49  74 CALM      30.00R
GLENS FALLS    SUNNY     57  51  80 CALM      29.98S

$$
NHZ002-005-011-031200-
_____NEW HAMPSHIRE_____


CITY           SKY/WX    TMP DP  RH WIND       PRES   REMARKS
LEBANON        FOG       50  49  96 CALM      29.98R VSB 1
KEENE          CLOUDY    52  46  82 CALM      29.98R VSB 1/2
MT WASHINGTON  MOSUNNY   37  32  81 NW37G44     N/A  WCI  24
PLYMOUTH       FAIR      48  48 100 CALM      29.97R
WHITEFIELD     SUNNY     47  44  90 CALM      29.97R

$$

_____REGIONAL QUEBEC LOCATIONS_____


CITY           SKY/WX    TMP DP  RH WIND       PRES   REMARKS
MONTREAL       PTSUNNY   57  52  82 SW8       29.94R
QUEBEC CITY    MOSUNNY   54  48  82 SW10      29.85R
SHERBROOKE     SUNNY     52  50  93 VRB2      29.93R

_____REGIONAL ONTARIO LOCATIONS_____


CITY           SKY/WX    TMP DP  RH WIND       PRES   REMARKS
OTTAWA         MOSUNNY   55  50  82 W6        29.97R

______KEY______
VSB  - VISIBILITY IN MILES
WCI  - WIND CHILL INDEX
HX   - HEAT INDEX
$$
NNNN



USA.gov is the U.S. government's official web portal to all federal, state and local government web resources and services.